Regional Weather Roundup
Issued by NWS

Home | Current Version | Previous Version | Text Only | Print | Product List | Glossary Off
Versions: 1 2 3 4 5 6 7 8 9 10 11 12 13 14 15 16 17 18 19 20 21 22 23 24 25 26 27 28 29 30 31 32 33 34 35 36 37 38 39 40 41 42 43 44 45 46 47 48 49 50

000
ASUS43 KLMK 281302
RWRKY
KENTUCKY REGIONAL WEATHER ROUNDUP
NATIONAL WEATHER SERVICE LOUISVILLE KY
900 AM EDT WED JUN 28 2017

NOTE "FAIR" INDICATES FEW OR NO CLOUDS BELOW 12,000 FEET
WITH NO SIGNIFICANT WEATHER AND/OR OBSTRUCTIONS TO VISIBILITY.

KYZ001>023-026-027-061>063-070>075-281400-
WESTERN AND SOUTH CENTRAL KENTUCKY

CITY           SKY/WX    TMP DP  RH WIND       PRES   REMARKS
PADUCAH        SUNNY     71  59  65 S6        30.08R
HENDERSON      SUNNY     67  58  72 S5        30.11R
OWENSBORO      SUNNY     67  58  72 SE8       30.12R
HOPKINSVILLE   SUNNY     69  58  68 SE7       30.12R
BOWLING GREEN  MOSUNNY   66  59  78 E3        30.15R
GLASGOW        NOT AVBL
$$

KYZ024-025-028>034-038-045-046-053-281400-
NORTH CENTRAL KENTUCKY

CITY           SKY/WX    TMP DP  RH WIND       PRES   REMARKS
LOUISVILLE/SDF CLOUDY    66  55  67 SE7       30.15S
LOUISVILLE/LOU SUNNY     67  55  65 S3        30.15F
FORT KNOX      SUNNY     66  56  70 SE3       30.13S
$$

KYZ035>037-039>044-047>052-055>060-089>105-281400-
NORTHEAST KENTUCKY

CITY           SKY/WX    TMP DP  RH WIND       PRES   REMARKS
LEXINGTON      SUNNY     67  52  58 SE5       30.20R
COVINGTON      PTSUNNY   66  55  67 S9        30.17R
FRANKFORT      SUNNY     66  54  65 SE5       30.17R
$$

KYZ054-064>069-076>088-106>120-281400-
SOUTHEAST KENTUCKY

CITY           SKY/WX    TMP DP  RH WIND       PRES   REMARKS
JACKSON        SUNNY     62  51  67 S3        30.22R
LONDON         SUNNY     61  53  75 E3        30.22R
SOMERSET       SUNNY     61  52  72 CALM      30.22R
MIDDLESBORO    SUNNY     57  53  84 CALM      30.25R
MONTICELLO     SUNNY     67  56  67 NE7       30.21R
$$





USA.gov is the U.S. government's official web portal to all federal, state and local government web resources and services.